sat.trackr.live / text

‹ back to catalog

STARLINK-36960

NORAD 68225 · 2026-053U

PAYLOAD ACTIVE UNKNOWN

§ Identity

Operator
Country
US
Launch date
2026-03-17
Launch site
AFWTR
Launch vehicle
Mass (kg)
RCS (m²)

Purposes: comms

External: N2YO · Heavens-Above · Gunter

§ Orbital elements

Epoch: 2026-09-19T21:35:15.821952Z

Period
93.91 min
Inclination
97.2861°
Eccentricity
0.0001951
Mean motion
15.33444467 rev/d
Perigee alt
464.2 km
Apogee alt
466.9 km
Semi-major
6,843.7 km
B*
3.4737e-4
RAAN
136.7226°
Arg perigee
91.2084°
Mean anomaly
268.9382°
Rev number
2,996

§ Raw data

STARLINK-369601 68225U 26053U   26262.89948868  .00011156  00000+0  34737-3 0  99972 68225  97.2861 136.7226 0001951  91.2084 268.9382 15.33444467 29960

JSON: /api/v1/satellites/68225 · /tle

For live sub-satellite position, see the globe view (requires WebGL).

§ Visibility from observer

Set your observer location to see the next 7 days of passes ≥ 10°. The values pass through the URL so the page stays shareable.

No JS? Fill the form by hand. The geolocation button needs JavaScript.